DW6598 Weather Reports


time (UTC)temp
C
wind
direction
speed
KPH
gust
KPH
rain 1hr
cm
rain 24hr
cm
rain mn
cm
humidity
%
barometer
mb
20260508011544 10 150 1.6 6.4 1.04 1.85 1.12 56 1012.7
20260508010036 10 158 3.2 12.9 0.69 1.50 0.76 55 1012.4
20260508004535 11 146 3.2 19.3 0.00 1.09 0.08 54 1012.3
20260508003037 11 180 3.2 11.3 0.00 1.09 0.08 54 1012.0
20260508001537 11 171 4.8 17.7 0.00 1.09 0.08 52 1011.8
20260508000034 12 206 4.8 19.3 0.00 1.09 0.08 51 1011.4
20260507234532 13 113 8.0 24.1 0.00 1.09 0.08 49 1011.3
20260507233051 13 200 6.4 17.7 0.00 1.09 0.08 48 1011.1
20260507231537 13 198 3.2 17.7 0.00 1.09 0.08 48 1010.9
20260507230030 13 194 4.8 12.9 0.00 1.09 0.08 48 1010.8
20260507224531 14 181 4.8 14.5 0.00 1.09 0.08 47 1010.7
20260507223029 13 121 3.2 12.9 0.00 1.09 0.08 47 1010.6
20260507221534 13 205 3.2 16.1 0.00 1.09 0.08 46 1010.5
20260507220029 14 155 4.8 16.1 0.00 1.09 0.08 44 1010.2
20260507214526 15 135 8.0 22.5 0.00 1.09 0.08 43 1010.1
20260507213031 14 123 4.8 16.1 0.00 1.09 0.08 43 1010.1
20260507211524 15 168 6.4 14.5 0.00 1.09 0.08 42 1010.1
20260507210023 15 146 9.7 24.1 0.00 1.09 0.08 41 1010.0
20260507204523 15 173 6.4 24.1 0.00 1.09 0.08 42 1009.9
20260507203021 15 139 3.2 19.3 0.00 1.09 0.08 46 1009.9
20260507201521 15 139 4.8 16.1 0.00 1.09 0.08 45 1010.1
20260507200018 15 149 3.2 12.9 0.00 1.09 0.08 44 1010.2
20260507194518 15 130 4.8 11.3 0.00 1.09 0.08 45 1010.4
20260507193023 15 144 4.8 12.9 0.00 1.09 0.08 44 1010.5
20260507191527 15 136 1.6 16.1 0.00 1.09 0.08 53 1010.4
20260507190014 14 233 1.6 9.7 0.00 1.09 0.08 47 1010.5
20260507184510 15 205 8.0 24.1 0.00 1.09 0.08 47 1010.7
20260507183019 15 108 4.8 12.9 0.00 1.09 0.08 48 1010.7
20260507181508 15 160 6.4 17.7 0.00 1.09 0.08 47 1010.8
20260507180006 15 108 4.8 16.1 0.00 1.09 0.08 48 1011.0
20260507174507 15 118 1.6 14.5 0.00 1.12 0.08 52 1011.1
20260507173004 14 134 1.6 17.7 0.00 1.12 0.08 49 1011.3
20260507171610 15 166 4.8 14.5 0.00 1.12 0.08 50 1011.5
20260507170115 14 134 4.8 11.3 0.00 1.12 0.08 50 1011.8
20260507164559 14 110 3.2 14.5 0.00 1.12 0.08 55 1011.7
20260507163053 13 99 3.2 12.9 0.00 1.12 0.08 53 1011.9
20260507161603 13 63 3.2 16.1 0.00 1.12 0.08 53 1011.9
20260507160049 13 123 1.6 11.3 0.00 1.12 0.08 52 1012.1
20260507154545 13 200 1.6 8.0 0.08 1.12 0.08 51 1012.2
20260507153045 12 179 4.8 11.3 0.08 1.12 0.08 55 1012.5
20260507151541 12 127 3.2 16.1 0.08 1.12 0.08 53 1012.6
20260507150037 12 132 1.6 9.7 0.08 1.12 0.08 57 1012.9
20260507144534 11 146 4.8 16.1 0.00 1.04 0.00 56 1013.0
20260507143032 11 134 6.4 16.1 0.00 1.04 0.00 59 1013.1
20260507141530 11 156 3.2 11.3 0.00 1.04 0.00 61 1013.2
20260507140028 11 147 0.0 12.9 0.00 1.04 0.00 62 1013.5
20260507134525 11 120 1.6 4.8 0.00 1.50 0.00 69 1013.7
20260507133022 10 144 0.0 8.0 0.00 1.50 0.00 69 1013.6
20260507131527 10 141 1.6 4.8 0.00 1.50 0.00 73 1013.8
20260507130016 8 82 0.0 3.2 0.00 1.50 0.00 78 1013.7
20260507124517 7 64 0.0 3.2 0.00 1.50 0.00 83 1013.8
20260507123012 6 77 0.0 0.0 0.00 1.50 0.00 87 1013.9
20260507121512 5 169 0.0 0.0 0.00 1.50 0.00 91 1013.9
20260507120026 4 169 0.0 0.0 0.00 1.50 0.00 92 1013.8
20260507114510 3 169 0.0 0.0 0.00 1.50 0.00 92 1013.7
20260507113032 3 169 0.0 1.6 0.00 1.50 0.00 92 1013.6
20260507111509 -17 0.0 0.0 0.00 1.50 0.00 1013.3
20260507110010 -17 0.0 0.0 0.00 1.50 0.00 1013.4
20260507104602 -17 0.0 0.0 0.00 1.50 0.00 1013.2
20260507103055 -17 0.0 0.0 0.00 1.50 0.00 1013.0
20260507101558 -17 0.0 0.0 0.00 1.50 0.00 1012.9
20260507100046 -17 0.0 0.0 0.00 1.50 0.00 1012.9
20260507094549 -17 0.0 0.0 0.00 1.55 0.00 1012.9
20260507093037 -17 0.0 0.0 0.00 1.55 0.00 1012.9
20260507091533 -17 0.0 0.0 0.00 1.55 0.00 1013.1
20260507090030 3 169 0.0 0.0 0.00 1.55 0.00 90 1013.0
20260507084528 3 169 0.0 0.0 0.00 1.80 0.00 89 1013.1
20260507083026 3 169 0.0 0.0 0.00 1.80 0.00 89 1013.0
20260507081531 4 169 0.0 0.0 0.00 1.80 0.00 88 1013.1
20260507080021 5 169 0.0 0.0 0.00 1.80 0.00 87 1013.0
20260507074528 5 169 0.0 0.0 0.00 1.80 0.00 85 1013.0
20260507073015 5 169 0.0 0.0 0.00 1.80 0.00 83 1013.0
20260507071513 6 169 0.0 0.0 0.00 1.80 0.00 83 1013.2
20260507070013 6 169 0.0 0.0 0.00 1.80 0.00 82 1013.1
20260507064508 6 169 0.0 0.0 0.00 1.80 0.00 84 1013.3
20260507063004 7 169 0.0 0.0 0.00 1.80 0.00 77 1013.2
20260507061502 7 169 0.0 0.0 0.00 1.80 0.00 76 1013.1
20260507060108 7 169 0.0 0.0 0.00 1.80 0.00 74 1013.2
20260507054559 7 169 0.0 0.0 0.00 1.83 0.00 74 1013.4
20260507053056 8 169 0.0 0.0 0.00 1.83 0.00 75 1013.7
20260507051554 8 155 0.0 0.0 0.00 1.83 0.00 75 1013.7
20260507050057 8 211 0.0 0.0 0.00 1.83 0.00 75 1013.9
20260507044553 8 211 0.0 0.0 0.00 1.85 0.00 74 1013.7
20260507043051 8 211 0.0 0.0 0.00 1.85 0.00 74 1013.6
20260507041549 8 211 0.0 0.0 0.00 1.85 0.00 74 1013.6
20260507040046 8 211 0.0 0.0 0.00 1.85 0.00 73 1013.5
20260507034602 8 211 0.0 0.0 0.00 1.85 1.85 73 1013.4
20260507033101 8 211 0.0 0.0 0.00 1.85 1.85 73 1013.5
20260507031543 8 211 0.0 0.0 0.00 1.85 1.85 72 1013.1
20260507030042 9 211 0.0 1.6 0.00 1.85 1.85 71 1012.9
20260507024552 9 211 0.0 1.6 0.00 1.85 1.85 70 1012.9
20260507023039 9 211 0.0 1.6 0.00 1.85 1.85 70 1012.9
20260507021539 9 214 0.0 0.0 0.00 1.85 1.85 69 1012.8
20260507020038 10 214 0.0 1.6 0.71 1.85 1.85 68 1012.5
20260507014535 10 207 0.0 1.6 1.02 1.85 1.85 68 1012.4
20260507013038 10 228 0.0 3.2 1.02 1.85 1.85 68 1012.2